CAPE
0 2 2 0 0 0 0 0 0 0 0 0 0 14 16 3 0 0 0 0 0 0 0 0 0 0 0 0 0 0 0 0 0 0 0 0 36 284 724 653 579 711 534
0 77 0 0 0 0 0 0 0 0 0 0 0 0 0 0 0 0 0 0 0 0 0 0 0 0 0 0 0 0 0 0 0 0 0 0 0 0 239 822 774 719 519
0 14 0 0 0 0 0 0 0 0 0 0 0 0 0 0 0 0 0 0 0 0 0 0 0 0 0 0 0 0 0 0 0 0 0 0 0 0 0 615 887 695 544
4 4 1 0 0 0 0 0 0 0 0 0 0 0 0 0 0 0 0 0 0 0 0 0 0 0 0 0 0 0 0 0 0 0 0 0 0 0 0 15 485 758 525
14 18 16 0 0 0 0 0 0 0 0 0 0 0 0 0 0 0 0 0 0 0 0 0 0 0 0 0 0 0 0 0 0 0 0 0 0 0 0 68 316 1077 734
20 7 24 0 0 0 0 0 0 0 0 0 0 0 0 0 0 0 0 0 0 0 0 0 10 11 7 19 12 17 179 98 59 0 16 0 0 0 4 139 469 982 1027
2 12 7 8 0 0 0 0 0 0 0 0 0 0 0 0 0 0 0 0 0 9 15 38 61 62 90 169 214 212 153 218 115 56 0 88 0 0 89 343 470 615 779
47 98 82 174 3 0 0 0 0 0 0 0 0 0 0 0 0 0 0 0 7 42 87 123 181 195 235 369 380 365 350 380 219 162 40 12 0 7 168 770 723 703 802
165 122 57 180 130 14 23 3 0 0 0 0 0 0 0 0 0 0 0 9 30 58 94 152 197 316 451 457 330 321 221 247 218 197 239 39 0 4 212 782 581 677 677
147 112 9 43 280 83 128 183 0 0 0 0 0 0 0 0 0 0 0 25 48 83 132 211 342 552 614 464 300 212 216 194 48 204 282 184 30 27 218 575 792 485 322
47 28 15 5 100 134 119 225 138 35 9 12 25 6 9 8 16 13 9 30 50 163 271 376 486 626 682 423 213 117 108 16 0 0 12 156 209 205 236 379 782 512 355
51 26 13 12 39 116 79 134 298 183 92 115 112 116 90 117 106 20 57 34 95 249 392 552 677 684 528 312 155 44 45 40 0 0 0 192 258 290 311 368 571 745 414
0 74 73 69 95 94 155 194 169 229 176 222 193 232 248 236 161 134 99 140 151 237 482 648 777 704 602 416 242 113 41 1 0 20 16 17 67 112 289 413 496 732 443
0 0 11 85 107 138 150 154 137 129 164 113 180 291 260 223 170 162 117 141 292 183 491 811 847 962 912 580 346 179 110 94 55 78 148 46 164 321 448 397 446 737 437
0 0 0 0 5 67 148 157 152 144 158 117 126 270 265 161 201 192 184 147 154 256 285 756 874 974 942 680 336 203 175 198 249 287 338 189 249 335 458 550 609 892 790
0 0 0 0 0 9 35 104 140 155 184 183 142 217 312 191 225 158 148 103 5 1 120 561 868 887 861 545 358 295 283 338 374 503 531 550 137 237 444 423 892 975 861
0 0 0 0 0 0 7 23 113 154 151 200 193 236 279 296 278 74 77 111 15 6 6 270 619 584 599 528 427 474 458 485 419 553 610 505 370 148 256 323 555 775 847
0 0 0 0 0 0 0 6 95 184 167 204 241 232 297 353 282 160 44 41 26 0 16 129 524 415 572 617 594 572 497 462 494 518 522 475 473 386 320 219 220 486 698
0 0 0 0 0 0 0 33 130 187 171 232 270 279 364 365 287 160 97 16 3 34 58 277 556 457 664 703 695 605 593 542 514 524 450 514 502 450 488 416 174 169 149
0 0 0 0 0 0 0 72 267 340 271 292 340 383 382 347 312 333 207 87 104 71 69 487 590 574 652 769 486 360 372 442 524 548 544 464 377 470 657 553 429 237 138
0 0 0 0 0 0 0 22 129 241 471 473 473 485 447 509 525 437 287 249 126 111 181 664 544 646 661 330 261 180 197 315 458 468 453 371 361 372 599 499 444 443 264
0 0 0 0 0 0 0 51 308 514 500 538 535 658 719 690 660 556 387 269 140 212 529 559 594 312 279 149 217 10 38 267 322 404 367 355 332 374 341 456 62 274 431
0 0 0 0 0 0 1 222 384 461 280 484 640 650 721 687 683 542 492 317 260 658 712 512 531 309 491 19 1 93 58 69 179 244 225 130 139 224 389 494 211 194 569
0 0 0 0 0 0 30 193 272 403 297 570 545 681 697 780 706 543 489 474 658 643 437 445 592 270 250 117 0 4 0 35 23 134 231 90 28 157 144 198 322 315 368
0 0 0 0 0 0 87 288 483 568 745 855 882 848 874 914 813 644 673 797 811 364 379 562 313 89 44 46 26 21 24 83 51 82 65 10 26 154 231 36 27 244 581
0 0 0 0 2 71 191 327 558 641 671 855 1019 1026 984 897 860 774 752 708 622 351 370 188 150 123 15 26 44 55 64 96 156 108 35 6 0 66 51 55 149 403 547
CIN
-0 -314 -266 -0 -0 -0 -0 -0 -0 -0 -0 -0 -0 -116 -111 -61 -0 -0 -0 -0 -0 -0 -0 -0 -0 -0 -0 -0 -0 -0 -0 -0 -0 -0 -0 -0 -46 -70 -19 -27 -25 -0 -10
-0 -626 -0 -0 -0 -0 -0 -0 -0 -0 -0 -0 -0 -0 -0 -0 -0 -0 -0 -0 -0 -0 -0 -0 -0 -0 -0 -0 -0 -0 -0 -0 -0 -0 -0 -0 -0 -0 -70 -7 -10 -1 -16
-0 -620 -1 -0 -0 -0 -0 -0 -0 -0 -0 -0 -0 -0 -0 -0 -0 -0 -0 -0 -0 -0 -0 -0 -0 -0 -0 -0 -0 -0 -0 -0 -0 -0 -0 -0 -0 -0 -0 -24 -3 -10 -22
-236 -618 -387 -0 -0 -0 -0 -0 -0 -0 -0 -0 -0 -0 -0 -0 -0 -0 -0 -0 -0 -0 -0 -0 -0 -0 -0 -0 -0 -0 -0 -0 -0 -0 -0 -0 -0 -0 -0 -125 -38 -6 -29
-517 -606 -638 -0 -0 -0 -0 -0 -0 -0 -0 -0 -0 -0 -0 -0 -0 -0 -0 -0 -0 -0 -0 -0 -0 -0 -0 -0 -0 -0 -0 -0 -0 -0 -0 -0 -0 -0 -0 -113 -50 -2 -14
-545 -621 -671 -0 -0 -0 -0 -0 -0 -0 -0 -0 -0 -0 -0 -0 -0 -0 -0 -0 -0 -0 -0 -0 -354 -301 -250 -214 -185 -140 -26 -37 -52 -0 -76 -0 -0 -0 -110 -58 -34 -12 -6
-474 -597 -666 -564 -0 -0 -0 -0 -0 -0 -0 -0 -0 -0 -0 -0 -0 -0 -0 -0 -0 -453 -420 -345 -278 -246 -207 -139 -94 -66 -75 -22 -32 -48 -0 -32 -0 -0 -76 -20 -21 -16 -21
-420 -519 -585 -625 -172 -0 -0 -0 -0 -0 -0 -0 -0 -0 -0 -0 -0 -0 -0 -0 -244 -389 -326 -259 -208 -193 -162 -100 -81 -72 -49 -24 -26 -14 -41 -29 -0 -50 -34 -12 -13 -12 -8
-444 -523 -577 -540 -637 -555 -671 -345 -0 -0 -0 -0 -0 -0 -0 -0 -0 -0 -0 -542 -481 -403 -329 -286 -241 -176 -120 -104 -117 -101 -122 -89 -64 -37 -8 -63 -0 -57 -23 -9 -10 -12 -13
-430 -470 -549 -600 -549 -569 -580 -587 -12 -0 -0 -0 -0 -0 -0 -0 -0 -0 -0 -514 -465 -401 -353 -295 -223 -124 -84 -113 -149 -167 -151 -128 -158 -55 -7 -11 -103 -138 -27 -14 -5 -9 -20
-342 -424 -554 -596 -562 -559 -530 -544 -617 -656 -613 -408 -681 -232 -643 -592 -558 -517 -498 -475 -449 -374 -314 -242 -179 -113 -67 -121 -178 -207 -201 -105 -0 -0 -83 -45 -27 -24 -25 -17 -6 -9 -15
-167 -246 -393 -360 -543 -555 -574 -575 -562 -559 -603 -604 -616 -570 -577 -509 -489 -488 -449 -482 -417 -324 -245 -170 -115 -77 -95 -113 -165 -241 -194 -201 -0 -0 -0 -60 -30 -24 -20 -20 -14 -10 -17
-0 -209 -300 -408 -500 -508 -530 -563 -577 -542 -573 -546 -568 -534 -491 -492 -505 -475 -426 -384 -369 -315 -174 -113 -61 -53 -51 -76 -102 -148 -177 -52 -0 -141 -132 -162 -95 -60 -35 -26 -21 -11 -20
-0 -0 -207 -344 -435 -505 -505 -531 -555 -557 -606 -622 -593 -524 -491 -525 -519 -481 -449 -397 -302 -300 -168 -74 -36 -6 -2 -33 -66 -94 -100 -103 -118 -96 -44 -94 -55 -34 -27 -32 -28 -18 -22
-0 -0 -0 -0 -330 -443 -470 -491 -551 -571 -606 -616 -637 -581 -558 -589 -550 -495 -438 -397 -344 -251 -220 -70 -23 -1 -0 -6 -58 -66 -53 -50 -37 -15 -8 -41 -44 -29 -24 -19 -20 -13 -12
-0 -0 -0 -0 -0 -446 -417 -460 -499 -625 -633 -648 -660 -635 -585 -605 -564 -532 -461 -440 -213 -242 -285 -120 -31 -11 -1 -6 -31 -31 -23 -13 -14 -13 -2 -14 -57 -33 -30 -22 -7 -5 -12
-0 -0 -0 -0 -0 -0 -401 -448 -549 -600 -699 -656 -652 -665 -596 -566 -537 -585 -500 -450 -467 -457 -388 -292 -185 -100 -28 -11 -14 -6 -8 -12 -13 -11 -8 -13 -22 -41 -33 -26 -13 -8 -8
-0 -0 -0 -0 -0 -0 -0 -165 -554 -603 -699 -647 -652 -644 -578 -541 -539 -546 -522 -521 -467 -5 -403 -258 -85 -123 -35 -6 -4 -0 -3 -9 -10 -11 -7 -9 -7 -6 -12 -27 -26 -13 -6
-0 -0 -0 -0 -0 -0 -0 -519 -613 -695 -723 -658 -664 -640 -571 -534 -526 -510 -520 -542 -258 -426 -361 -155 -53 -58 -12 -2 -1 -1 -3 -3 -1 -5 -4 -6 -11 -13 -8 -17 -27 -24 -26
-0 -0 -0 -0 -0 -0 -0 -669 -664 -661 -709 -676 -651 -601 -563 -536 -519 -447 -449 -457 -386 -349 -269 -62 -26 -27 -7 -1 -2 -13 -7 -1 -1 -1 -2 -3 -5 -13 -17 -29 -11 -8 -26
-0 -0 -0 -0 -0 -0 -0 -599 -641 -571 -627 -611 -590 -571 -525 -458 -420 -387 -403 -364 -343 -282 -168 -31 -17 -9 -0 -23 -9 -2 -1 -6 -1 -0 -1 -4 -2 -14 -15 -27 -23 -10 -6
-0 -0 -0 -0 -0 -0 -0 -558 -599 -564 -612 -554 -543 -472 -409 -388 -367 -318 -317 -309 -311 -223 -39 -24 -25 -36 -24 -28 -0 -0 -3 -0 -2 -0 -0 -5 -9 -5 -6 -17 -50 -26 -8
-0 -0 -0 -0 -0 -0 -36 -629 -625 -624 -671 -547 -470 -441 -374 -359 -308 -286 -259 -283 -221 -40 -25 -11 -32 -31 -0 -9 -0 -2 -0 -0 -0 -3 -3 -25 -28 -25 -11 -9 -30 -28 -14
-0 -0 -0 -0 -0 -0 -637 -549 -476 -324 -360 -459 -461 -378 -331 -288 -241 -233 -239 -172 -61 -46 -40 -30 -17 -21 -3 -1 -0 -14 -0 -11 -5 -1 -0 -10 -49 -17 -15 -19 -19 -22 -25
-0 -0 -0 -0 -0 -0 -636 -558 -471 -377 -376 -363 -328 -306 -245 -198 -167 -168 -106 -36 -29 -64 -44 -24 -18 -27 -21 -6 -11 -30 -6 -0 -12 -10 -6 -18 -31 -16 -17 -59 -49 -27 -14
-0 -0 -0 -0 -115 -671 -611 -550 -450 -386 -377 -321 -265 -213 -179 -155 -130 -83 -45 -35 -37 -60 -39 -33 -23 -17 -12 -18 -10 -10 -1 -0 -0 -5 -10 -26 -13 -14 -40 -51 -29 -13 -13
Wind_Speed
16 19 20 20 20 21 21 21 21 20 20 20 20 20 20 20 20 20 19 19 19 18 18 17 16 15 14 14 14 14 14 15 16 17 17 17 16 15 14 11 10 10 8
16 18 19 19 19 20 21 21 20 19 18 18 18 18 18 18 18 18 18 18 19 19 19 19 18 17 15 15 14 14 15 15 16 17 18 17 17 17 15 13 11 10 8
15 17 18 17 17 18 19 19 18 17 16 16 16 16 16 16 17 17 17 17 18 18 19 19 19 19 18 16 15 15 15 15 16 17 17 18 18 18 17 15 12 11 9
14 14 16 16 15 15 16 17 17 16 15 14 14 14 14 14 15 15 16 16 17 17 18 19 19 19 19 18 17 16 15 15 15 17 17 17 18 18 19 18 17 13 11
11 11 13 15 14 14 14 15 15 14 14 13 12 12 12 12 13 13 14 15 15 16 16 17 18 18 18 18 18 17 16 16 15 15 17 18 18 17 20 20 17 16 13
11 11 11 11 13 12 12 13 12 11 11 11 11 10 10 11 11 11 12 13 13 14 14 15 16 17 18 18 18 18 17 16 16 16 16 17 18 19 22 22 21 16 12
8 9 10 9 10 10 10 10 9 9 9 8 8 9 9 8 9 9 10 10 11 12 12 13 14 15 16 17 17 18 18 17 16 16 16 16 16 20 23 23 21 11 11
7 6 5 6 8 9 8 6 4 5 6 5 6 7 7 6 6 7 7 8 9 10 10 11 12 14 16 17 19 19 19 18 16 16 17 17 17 19 22 22 14 12 12
6 5 3 5 5 6 3 3 3 2 4 4 4 4 5 4 4 4 5 5 6 7 8 9 11 13 15 17 18 19 19 18 17 15 15 17 17 18 20 21 16 14 14
7 5 2 2 2 2 2 3 3 3 4 4 5 4 3 1 0 1 3 3 4 5 7 8 10 13 14 16 17 19 19 18 15 15 14 15 19 19 19 21 18 16 15
6 4 2 1 3 4 4 4 5 6 6 6 6 6 4 3 3 2 1 2 3 4 5 7 10 11 13 14 15 19 19 17 16 15 14 14 16 20 19 20 20 18 17
7 6 5 5 6 6 6 6 7 7 7 7 7 7 6 5 5 4 4 2 3 4 6 8 10 11 12 14 16 17 19 19 18 17 15 14 14 18 20 20 22 21 19
12 11 9 9 9 9 8 9 9 9 9 9 9 8 7 6 6 6 6 5 6 6 9 9 10 10 11 12 15 17 19 19 19 19 16 14 13 15 19 21 22 21 20
15 13 15 11 12 11 12 12 11 11 12 12 11 11 10 9 9 7 7 6 8 11 10 12 12 12 12 12 14 17 18 18 19 19 19 15 14 14 17 21 21 21 20
21 21 20 19 15 13 14 15 14 13 13 13 12 12 13 12 10 9 8 8 10 12 13 15 14 14 13 12 14 16 17 17 18 19 20 18 17 15 15 18 20 22 20
25 24 24 23 19 17 17 17 16 15 13 12 13 13 14 13 11 11 10 9 11 11 13 15 15 15 12 13 16 16 16 16 16 17 19 21 21 20 17 13 20 24 24
27 26 25 28 24 20 19 18 17 14 12 12 13 12 12 13 13 12 12 10 10 11 11 10 12 11 13 15 16 17 16 15 14 13 16 20 23 21 19 18 26 29 24
29 30 33 32 27 23 20 19 16 13 12 13 12 11 11 11 11 12 12 12 11 11 9 10 10 11 14 14 17 17 17 15 13 12 14 20 23 22 20 24 24 17 22
33 37 41 35 31 27 23 18 16 15 14 13 11 10 10 10 10 10 11 12 11 9 10 11 10 13 14 14 16 17 16 15 13 15 14 18 21 22 21 24 17 19 22
43 41 37 34 31 26 23 19 17 15 14 12 12 11 10 10 9 10 10 9 9 8 9 9 11 12 13 15 17 20 18 15 14 14 14 14 19 21 21 21 17 21 21
44 41 36 34 28 23 20 18 15 14 12 13 11 10 9 9 9 9 7 6 7 7 7 7 12 12 14 17 21 20 15 13 13 11 12 13 17 19 21 20 20 22 18
45 42 39 34 29 23 17 15 16 11 13 12 11 9 8 8 8 5 5 5 4 5 6 8 10 14 15 14 17 17 17 13 11 11 12 14 16 18 20 20 20 23 20
38 37 34 34 29 22 17 14 13 12 13 12 11 10 8 5 3 2 2 3 2 3 4 7 10 11 13 14 11 13 15 13 13 12 11 16 17 19 20 19 19 23 21
36 31 32 31 25 20 14 12 11 11 12 12 10 7 3 0 1 3 2 1 2 5 6 8 10 10 11 12 12 9 12 14 11 12 11 17 20 21 20 19 19 22 22
34 34 31 26 20 15 11 9 7 9 11 9 6 3 2 3 3 3 3 3 4 5 7 9 9 8 8 9 7 10 7 8 11 12 13 15 19 18 20 18 19 21 22
25 23 23 19 16 13 8 7 6 5 7 6 3 3 4 4 5 5 3 5 6 7 7 9 7 7 7 7 7 7 7 7 5 10 15 16 19 20 18 18 20 19 19
Wind_Direction
111 115 120 114 105 101 102 102 102 98 95 95 92 90 86 82 76 72 69 63 59 54 49 41 32 26 19 15 7 358 348 338 327 321 317 317 319 319 321 330 328 322 342
103 114 122 118 110 107 107 107 104 101 97 95 92 90 89 83 77 71 66 62 60 56 52 47 41 36 30 22 13 5 353 342 331 319 313 309 308 306 313 317 319 319 320
103 115 123 120 116 110 109 108 106 101 96 95 92 91 89 80 74 68 65 63 60 56 52 47 44 43 39 32 24 13 358 346 336 328 318 307 304 302 302 303 306 309 314
104 109 121 122 114 113 111 113 112 104 98 97 95 93 89 80 74 69 62 61 59 55 53 50 49 48 45 40 32 19 8 1 346 331 324 314 303 300 296 296 292 294 300
99 107 118 123 118 118 115 118 115 107 103 102 100 97 90 81 73 69 61 57 58 56 51 49 48 46 42 38 32 22 10 5 359 348 327 317 307 300 293 291 292 287 286
104 114 122 124 127 123 120 124 118 109 106 102 105 105 96 87 84 74 66 63 64 62 53 50 47 43 37 30 24 18 10 6 356 348 341 327 309 298 290 286 285 286 284
85 111 124 135 131 134 131 131 122 116 114 111 112 111 111 98 91 83 67 63 63 63 58 48 43 38 32 25 18 11 6 1 352 344 339 335 324 297 289 285 284 283 283
86 93 110 137 142 145 144 140 120 123 124 125 123 125 126 112 100 87 79 72 61 58 57 47 35 30 24 15 9 2 357 355 353 343 334 328 325 309 291 286 290 284 283
37 60 91 139 156 157 164 172 162 167 156 154 157 150 145 128 105 93 95 77 66 54 45 37 28 20 17 9 5 1 354 351 348 342 337 326 320 312 299 286 287 284 283
356 8 37 135 163 213 246 225 215 221 202 196 204 194 196 205 296 85 94 91 54 39 33 30 17 12 11 8 3 359 355 354 355 346 337 329 313 308 303 288 283 284 281
337 339 342 261 284 271 265 256 237 236 225 223 218 213 239 258 274 301 321 5 8 12 14 12 5 4 7 7 7 357 355 356 354 350 337 329 317 303 301 291 280 280 281
313 309 300 290 277 284 278 267 256 247 242 241 232 226 239 268 278 282 287 293 329 341 348 352 353 356 1 2 2 360 355 350 348 346 342 329 319 305 295 290 280 275 276
315 313 307 297 284 273 279 289 280 267 263 263 245 247 244 254 268 283 297 296 318 323 339 340 344 349 353 356 356 355 351 352 346 343 341 334 324 310 295 285 280 276 274
316 317 316 304 294 284 286 286 287 267 262 263 258 254 256 264 271 272 283 290 310 321 329 331 337 339 341 344 347 347 347 346 344 339 330 330 325 320 300 285 280 277 274
305 309 310 311 303 295 287 291 288 276 267 254 259 255 251 257 259 263 277 285 305 317 321 324 328 330 332 337 340 341 339 339 337 334 324 319 317 318 310 290 278 273 274
296 301 305 308 305 301 294 287 284 282 272 264 260 258 253 258 259 267 273 275 292 306 316 320 324 328 329 332 334 336 335 335 334 330 320 307 303 304 308 298 277 269 268
294 297 301 303 305 301 296 289 287 282 272 272 270 258 255 258 267 265 272 266 278 293 299 309 318 324 325 327 329 333 333 331 332 328 320 308 298 300 292 289 266 258 265
292 295 297 301 301 299 298 298 289 282 279 285 282 269 260 263 269 272 270 264 273 286 298 314 325 324 323 325 328 331 331 331 329 326 322 305 295 292 288 275 271 277 264
291 292 294 299 302 302 300 297 294 290 286 290 289 280 273 272 278 274 272 270 270 287 303 315 323 323 327 327 329 331 331 327 322 320 316 307 294 287 284 273 278 267 262
288 290 294 299 304 304 302 299 299 293 291 289 291 283 281 283 271 281 285 278 276 287 301 315 320 329 332 330 332 329 329 325 321 317 313 308 293 283 279 274 272 263 263
285 286 292 297 303 307 304 299 295 292 291 294 290 284 283 283 285 285 288 281 278 286 297 310 329 335 333 333 330 331 334 330 324 321 316 308 292 279 276 271 266 259 267
281 280 285 292 300 302 300 303 309 304 303 302 300 294 288 288 290 284 290 294 283 298 307 322 334 335 335 339 336 339 342 352 341 327 316 305 287 275 270 268 261 256 259
284 280 282 290 295 298 295 297 307 312 317 309 304 303 295 290 284 293 307 314 298 323 318 329 335 337 339 340 344 347 349 355 359 347 316 297 283 270 264 264 258 251 258
284 285 285 289 295 298 291 282 285 298 308 314 315 320 319 348 332 340 15 9 351 334 335 335 341 344 343 343 352 353 349 355 5 354 322 283 273 261 259 262 258 253 253
284 284 286 288 291 296 296 282 286 303 316 324 336 15 19 4 11 30 12 9 350 351 344 345 350 354 0 1 19 8 12 17 7 350 323 300 267 262 258 259 254 248 251
288 290 288 290 289 291 289 287 289 303 322 331 15 57 46 29 14 3 14 355 355 355 354 353 4 12 23 24 31 44 34 39 54 333 310 286 252 245 254 254 250 248 253